Total_Precipitation_Accumulation
3.03 3.29 1.99 2.01 1.90 0.53 0.30 0.16 0.01 0.00 0.00 0.00 0.00 0.00 0.00 0.00 0.00 0.00 0.00 0.00 0.00 0.00 0.00 0.00 0.00 0.00 0.00 0.00 0.00 0.00 0.00 0.00
5.80 5.47 3.68 2.49 1.94 1.41 0.36 0.23 0.04 0.00 0.00 0.00 0.00 0.00 0.00 0.00 0.00 0.00 0.00 0.00 0.00 0.00 0.00 0.00 0.00 0.00 0.00 0.00 0.00 0.00 0.00 0.00
4.64 6.67 5.38 2.86 1.72 1.70 0.72 0.47 0.09 0.00 0.00 0.00 0.00 0.00 0.00 0.00 0.00 0.00 0.00 0.00 0.00 0.00 0.00 0.00 0.00 0.00 0.00 0.00 0.00 0.00 0.00 0.00
2.53 4.78 6.53 3.95 2.22 0.98 0.70 0.62 0.21 0.01 0.00 0.00 0.00 0.00 0.00 0.01 0.00 0.00 0.00 0.00 0.00 0.00 0.00 0.00 0.00 0.00 0.00 0.00 0.00 0.00 0.00 0.00
1.00 2.18 3.91 3.32 2.57 1.13 0.58 0.57 0.16 0.00 0.00 0.00 0.00 0.00 0.00 0.00 0.00 0.00 0.00 0.00 0.00 0.00 0.00 0.00 0.00 0.00 0.00 0.00 0.00 0.00 0.00 0.00
0.80 0.67 1.56 1.73 1.31 0.79 0.36 0.21 0.06 0.01 0.00 0.00 0.00 0.00 0.00 0.00 0.00 0.00 0.00 0.00 0.00 0.00 0.00 0.00 0.00 0.00 0.00 0.00 0.00 0.00 0.00 0.00
0.92 0.65 0.67 0.77 0.76 0.54 0.20 0.06 0.00 0.00 0.01 0.02 0.00 0.01 0.04 0.04 0.02 0.01 0.01 0.00 0.00 0.00 0.00 0.00 0.00 0.00 0.00 0.00 0.00 0.00 0.00 0.00
0.55 0.71 0.58 0.47 0.41 0.32 0.15 0.03 0.03 0.02 0.06 0.09 0.11 0.14 0.13 0.09 0.04 0.01 0.01 0.00 0.00 0.00 0.00 0.00 0.00 0.00 0.00 0.00 0.00 0.00 0.00 0.00
0.43 0.47 0.57 0.51 0.41 0.15 0.07 0.04 0.04 0.06 0.13 0.21 0.24 0.22 0.16 0.08 0.04 0.01 0.00 0.00 0.00 0.00 0.00 0.00 0.00 0.00 0.00 0.00 0.00 0.00 0.00 0.00
0.24 0.31 0.45 0.38 0.22 0.15 0.07 0.04 0.10 0.17 0.17 0.24 0.26 0.20 0.08 0.08 0.05 0.01 0.00 0.00 0.00 0.00 0.00 0.00 0.00 0.00 0.00 0.00 0.00 0.00 0.00 0.00
0.26 0.24 0.34 0.24 0.14 0.07 0.05 0.06 0.19 0.26 0.28 0.29 0.18 0.20 0.08 0.07 0.04 0.02 0.01 0.00 0.00 0.00 0.00 0.00 0.00 0.00 0.00 0.00 0.00 0.00 0.00 0.00
0.18 0.27 0.23 0.17 0.13 0.05 0.05 0.10 0.21 0.24 0.23 0.31 0.25 0.18 0.24 0.23 0.12 0.03 0.02 0.00 0.00 0.00 0.00 0.00 0.00 0.00 0.00 0.00 0.00 0.00 0.00 0.00
0.04 0.16 0.24 0.10 0.08 0.01 0.02 0.08 0.18 0.24 0.21 0.22 0.15 0.17 0.10 0.18 0.08 0.04 0.00 0.00 0.00 0.00 0.00 0.00 0.00 0.00 0.00 0.00 0.00 0.00 0.00 0.00
0.01 0.07 0.15 0.10 0.06 0.00 0.00 0.03 0.10 0.17 0.23 0.12 0.11 0.19 0.18 0.07 0.02 0.07 0.00 0.00 0.00 0.00 0.00 0.00 0.00 0.00 0.00 0.00 0.00 0.00 0.00 0.00
0.00 0.02 0.11 0.09 0.03 0.04 0.07 0.15 0.14 0.13 0.28 0.20 0.09 0.18 0.28 0.22 0.02 0.02 0.02 0.01 0.00 0.00 0.00 0.00 0.00 0.00 0.00 0.00 0.00 0.00 0.00 0.00
0.00 0.00 0.02 0.09 0.13 0.14 0.14 0.16 0.14 0.09 0.09 0.06 0.07 0.08 0.09 0.07 0.01 0.01 0.01 0.00 0.01 0.00 0.00 0.00 0.00 0.00 0.00 0.00 0.00 0.00 0.00 0.00
0.00 0.01 0.04 0.07 0.12 0.28 0.18 0.17 0.18 0.18 0.09 0.09 0.08 0.10 0.08 0.08 0.02 0.03 0.02 0.00 0.01 0.01 0.01 0.00 0.00 0.00 0.00 0.00 0.00 0.00 0.00 0.00
0.02 0.04 0.10 0.12 0.18 0.26 0.26 0.18 0.14 0.10 0.08 0.09 0.07 0.05 0.06 0.02 0.01 0.00 0.01 0.02 0.05 0.05 0.04 0.02 0.00 0.00 0.00 0.00 0.00 0.00 0.00 0.00
0.06 0.07 0.09 0.14 0.18 0.25 0.20 0.14 0.09 0.08 0.04 0.04 0.04 0.03 0.02 0.02 0.01 0.00 0.01 0.05 0.08 0.06 0.03 0.01 0.00 0.00 0.01 0.02 0.03 0.03 0.02 0.03
0.05 0.03 0.03 0.05 0.08 0.13 0.13 0.13 0.10 0.08 0.07 0.12 0.05 0.03 0.02 0.02 0.03 0.03 0.06 0.08 0.06 0.03 0.02 0.04 0.09 0.17 0.20 0.18 0.13 0.11 0.09 0.05